Billings, MT (59101)

7:11 AM MDT on July 22, 2017 (GMT -0600)
Jupiter Sulphur | | Change Station

Elev 3114 ft 45.78 °N, 108.49 °W | Updated 3 minutes ago

Clear
Clear
56.2 °F
Feels Like 56.2 °F
N
2.0
Wind Variable Wind from South
Gusts 3.0 mph

Today
High -- | Low -- °F
--% Chance of Precip.
Yesterday
High -- | Low -- °F
Precip. -- in
Pressure 30.05 in
Visibility 10.0 miles
Clouds Few 2400 ft
Few 12000 ft
Scattered Clouds 20000 ft
Dew Point 38 °F
Humidity 50%
Rainfall 0.00 in
Snow Depth Not available.
5:46 AM 8:53 PM
Waning Crescent, 1% visible
METAR KBIL 221253Z 25005KT 10SM FEW024 FEW120 SCT200 17/M01 A3015 RMK AO2 SLP175 VIS LWR N-NE T01671011
Pressure 30.05 in
Visibility 10.0 miles
Clouds Few 2400 ft
Few 12000 ft
Scattered Clouds 20000 ft
Dew Point 38 °F
Humidity 50%
Rainfall 0.00 in
Snow Depth Not available.
5:46 AM 8:53 PM
Waning Crescent, 1% visible
METAR KBIL 221253Z 25005KT 10SM FEW024 FEW120 SCT200 17/M01 A3015 RMK AO2 SLP175 VIS LWR N-NE T01671011

Get Severe Weather Alerts

Thanks for signing up!

Be on the lookout for a verification email in your inbox.

You'll start receiving the daily forecast at 6 AM.

×

10-Day Weather Forecast

Almanac

Astronomy

Jul. 22, 2017 Rise Set
Actual Time
Civil Twilight
Nautical Twilight
Astronomical Twilight
Moon
Length of Visible Light
Length of Day
Tomorrow will be .
, % of the Moon is Illuminated

Today's Extremes

State Highs State Lows

Community

WunderPhotos

Category 6

Welcome to Category 6. This is the collective home for Weather Underground's featured writeups by Dr. Jeff Masters (right), Bob Henson (left), Chris Burt, and other regular contributors.

Nearby

Air Quality

  Air Quality AQ Index Pollutant
Not available.

Snow Depth

Station Depth Elevation

Earthquake Activity

City Distance Mag. Time & Date
Minimum magnitude displayed is 2.5.

Coastal Water Temperatures

Place Temperature

Stations

Nearby Weather Stations

Station Location Temp. Windchill Dew Point Humidity Wind Precip. Elev Updated Type
                   

Watches & Warnings

There are currently no watches in effect.